EHI
0 0 0 0 0 0 0 0 0 0 0 0 0 0 0 0 0 0 0 0 0 0 0 0 0 0 0 0 0 0 0 0 0 0 0 0 0 0 0 0 0 0 0 0
0 0 0 0 0 0 0 0 0 0 0 0 0 0 0 0 0 0 0 0 0 0 0 0 0 0 0 0 0 0 0 0 0 0 0 0 0 0 0 0 0 0 0 0
0 0 0 0 0 0 0 0 0 0 0 0 0 0 0 0 0 0 0 0 0 0 0 0 0 0 0 0 0 0 0 0 0 0 0 0 0 0 0 0 0 0 0 0
0 0 0 0 0 0 0 0 0 0 0 0 0 0 0 0 0 0 0 0 0 0 0 0 0 0 0 0 0 0 0 0 0 0 0 0 0 0 0 0 0 0 0 0
0 0 0 0 0 0 0 0 0 0 0 0 0 0 0 0 0 0 0 0 0 0 0 0 0 0 0 0 0 0 0 0 0 0 0 0 0 0 0 0 0 0 0 0
0 0 0 0 0 0 0 0 0 0 0 0 0 0 0 0 0 0 0 0 0 0 0 0 0 0 0 0 0 0 0 0 0 0 0 0 0 0 0 0 0 0 0 0
0 0 0 0 0 0 0 0 0 0 0 0 0 0 0 0 0 0 0 0 0 0 0 0 0 0 0 0 0 0 0 0 0 0 0 0 0 0 0 0 0 0 0 0
0 0 0 0 0 0 0 0 0 0 0 0 0 0 0 0 0 0 0 0 0 0 0 0 0 0 0 0 0 0 0 0 0 0 0 0 0 0 0 0 0 0 0 0
0 0 0 0 0 0 0 0 0 0 0 0 0 0 0 0 0 0 0 0 0 0 0 0 0 0 0 0 0 0 0 0 0 0 0 0 0 0 0 0 0 0 0 0
0 0 0 0 0 0 0 0 0 0 0 0 0 0 0 0 0 0 0 0 0 0 0 0 0 0 0 0 0 0 0 0 0 0 0 0 0 0 0 0 0 0 0 0
0 0 0 0 0 0 0 0 0 0 0 0 0 0 0 0 0 0 0 0 0 0 0 0 0 0 0 0 0 0 0 0 0 0 0 0 0 0 0 0 0 0 0 0
0 0 0 0 0 0 0 0 0 0 0 0 0 0 0 0 0 0 0 0 0 0 0 0 0 0 0 0 0 0 0 0 0 0 0 0 0 0 0 0 0 0 0 0
0 0 0 0 0 0 0 0 0 0 0 0 0 0 0 0 0 0 0 0 0 0 0 0 0 0 0 0 0 0 0 0 0 0 0 0 0 0 0 0 0 0 0 0
0 0 0 0 0 0 0 0 0 0 0 0 0 0 0 0 0 0 0 0 0 0 0 0 0 0 0 0 0 0 0 0 0 0 0 0 0 0 0 0 0 0 0 0
0 0 0 0 0 0 0 0 0 0 0 0 0 0 0 0 0 0 0 0 0 0 0 0 0 0 0 0 0 0 0 0 0 0 0 0 0 0 0 0 0 0 0 0
0 0 0 0 0 0 0 0 0 0 0 0 0 0 0 0 0 0 0 0 0 0 0 0 0 0 0 0 0 0 0 0 0 0 0 0 0 0 0 0 0 0 0 0
0 0 0 0 0 0 0 0 0 0 0 0 0 0 0 0 0 0 0 0 0 0 0 0 0 0 0 0 0 0 0 0 0 0 0 0 0 0 0 0 0 0 0 0
0 0 0 0 0 0 0 0 0 0 0 0 0 0 0 0 0 0 0 0 0 0 0 0 0 0 0 0 0 0 0 0 0 0 0 0 0 0 0 0 0 0 0 0
0 0 0 0 0 0 0 0 0 0 0 0 0 0 0 0 0 0 0 0 0 0 0 0 0 0 0 0 0 0 0 0 0 0 0 0 0 0 0 0 0 0 0 0
0 0 0 0 0 0 0 0 0 0 0 0 0 0 0 0 0 0 0 0 0 0 0 0 0 0 0 0 0 0 0 0 0 0 0 0 0 0 0 0 0 0 0 0
0 0 0 0 0 0 0 0 0 0 0 0 0 0 0 0 0 0 0 0 0 0 0 0 0 0 0 0 0 0 0 0 0 0 0 0 0 0 0 0 0 0 0 0
0 0 0 0 0 0 0 0 0 0 0 0 0 0 0 0 0 0 0 0 0 0 0 0 0 0 0 0 0 0 0 0 0 0 0 0 0 0 0 0 0 0 0 0
0 0 0 0 0 0 0 0 0 0 0 0 0 0 0 0 0 0 0 0 0 0 0 0 0 0 0 0 0 0 0 0 0 0 0 0 0 0 0 0 0 0 0 0
0 0 0 0 0 0 0 0 0 0 0 0 0 0 0 0 0 0 0 0 0 0 0 0 0 0 0 0 0 0 0 0 0 0 0 0 0 0 0 0 0 0 0 0
0 0 0 0 0 0 0 0 0 0 0 0 0 0 0 0 0 0 0 0 0 0 0 0 0 0 0 0 0 0 0 0 0 0 0 0 0 0 0 0 0 0 0 0
0 0 0 0 0 0 0 0 0 0 0 0 0 0 0 0 0 0 0 0 0 0 0 0 0 0 0 0 0 0 0 0 0 0 0 0 0 0 0 0 0 0 0 0
Wind_Speed
7 7 12 14 10 5 7 7 7 7 4 5 8 9 10 5 6 8 8 9 11 15 11 7 9 9 9 10 11 13 13 12 9 7 7 6 6 5 5 5 6 7 7 7
7 14 11 8 8 5 5 6 6 3 1 4 5 10 9 6 7 9 11 13 14 12 8 8 9 10 12 13 14 14 14 13 12 10 7 4 4 4 4 5 6 7 7 7
12 5 11 9 8 9 8 8 6 3 1 1 2 8 9 8 6 7 8 9 9 12 13 11 11 12 13 15 16 14 15 14 13 11 6 4 3 3 4 5 5 7 8 8
8 6 13 13 12 12 10 6 5 3 2 3 3 6 9 8 8 10 11 10 12 12 12 11 11 12 15 16 14 14 14 14 13 12 10 10 9 8 7 5 5 6 7 8
11 10 15 17 14 12 5 7 5 3 2 2 3 5 9 4 10 12 12 13 14 13 13 13 13 14 13 12 11 12 12 13 13 14 14 13 11 8 5 5 6 6 5 6
5 6 10 10 9 11 8 8 6 4 2 8 10 7 11 8 11 9 11 13 13 12 11 11 9 8 8 8 8 10 12 13 13 15 15 14 13 10 8 7 6 5 3 3
6 5 4 6 11 9 9 9 4 3 5 10 6 8 13 9 9 11 12 12 11 9 9 9 9 9 9 9 10 10 12 13 13 15 15 15 14 12 11 9 8 6 4 3
13 10 11 9 11 12 13 11 9 9 8 4 4 11 12 8 6 6 8 7 7 7 8 9 9 8 8 9 9 10 12 12 12 14 14 13 12 9 8 9 7 7 5 5
15 9 5 6 5 14 12 9 6 5 2 2 7 9 11 6 7 8 8 7 9 8 7 7 6 6 6 7 7 9 10 10 11 12 12 11 11 9 9 8 7 6 6 6
10 8 6 6 6 3 10 11 6 6 7 6 6 7 8 6 10 10 10 11 10 7 6 6 5 5 4 4 4 4 6 7 7 8 9 8 9 9 9 9 9 8 8 8
7 9 5 7 11 14 9 9 8 7 6 7 6 10 9 11 11 11 12 10 9 8 7 6 4 4 4 3 4 4 4 5 5 6 7 8 8 8 9 9 10 10 9 9
6 8 5 5 2 7 8 11 11 10 8 6 4 10 5 7 6 6 7 6 4 5 5 5 5 5 4 4 4 4 4 5 5 5 6 7 8 9 10 10 10 10 11 9
9 10 9 3 2 5 8 9 12 8 5 5 7 11 3 2 5 5 6 5 4 4 5 5 6 6 5 5 5 5 5 5 5 6 7 8 9 10 10 10 10 10 11 10
9 7 10 16 11 10 8 8 9 9 8 9 14 11 5 5 6 6 5 4 4 5 6 6 6 6 6 5 5 5 5 5 6 7 8 8 9 9 10 10 10 10 10 11
9 7 6 5 6 12 10 12 12 12 13 14 15 14 13 9 7 5 4 4 5 6 8 9 9 8 7 7 6 6 6 6 7 8 8 8 8 9 10 10 10 9 9 10
9 9 6 3 4 7 8 12 16 16 15 16 13 16 9 6 5 5 6 7 8 9 10 10 9 9 10 10 9 8 7 7 7 8 8 8 9 9 10 10 10 10 10 9
9 9 9 5 4 5 9 17 19 14 13 13 20 21 5 6 10 11 10 10 12 12 11 12 13 12 11 11 10 10 9 8 8 8 9 9 10 10 10 10 10 10 10 9
12 9 6 6 6 9 14 8 12 17 16 16 14 8 10 14 12 9 9 11 12 11 11 12 12 11 9 9 9 9 9 9 9 9 9 9 10 10 10 10 10 9 8 8
9 11 7 6 7 10 10 7 13 14 17 16 17 12 7 3 1 6 9 11 13 11 10 10 9 9 10 11 12 11 10 10 10 11 10 10 11 11 11 10 10 8 8 7
6 8 8 7 9 16 14 8 8 7 15 13 13 12 8 7 6 10 7 8 9 7 6 6 7 8 10 11 12 13 12 12 12 12 10 10 10 11 11 10 9 6 7 8
8 7 10 9 9 13 6 6 12 13 15 4 10 11 12 14 13 6 2 3 4 4 4 6 8 9 10 12 13 13 13 13 10 9 10 9 8 9 9 9 7 8 8 8
14 11 11 9 9 14 5 11 15 11 2 3 5 6 9 9 5 1 0 1 0 1 3 5 7 7 7 11 13 13 12 9 10 11 10 10 9 8 8 9 8 8 9 9
11 12 10 12 12 3 8 9 5 3 4 3 4 3 5 5 3 2 1 0 0 1 2 3 5 6 6 8 10 11 9 10 11 11 11 10 9 7 8 9 10 8 7 7
3 3 6 4 4 3 3 1 1 2 3 2 2 2 4 3 2 2 1 1 1 1 1 3 5 6 6 6 5 6 9 11 12 12 10 10 10 8 7 6 7 8 8 7
6 6 5 5 3 2 1 3 3 3 4 4 4 3 3 3 2 2 1 1 1 1 1 2 4 4 4 5 5 7 10 11 11 10 9 9 8 9 8 6 5 6 4 6
2 5 8 7 8 7 5 3 4 5 4 4 4 4 4 3 2 2 2 1 2 2 2 2 3 4 4 5 6 6 8 10 12 10 9 8 7 7 7 7 4 5 5 6
Wind_Direction
152 164 198 194 187 168 164 175 202 219 218 187 223 241 253 231 220 228 221 215 219 226 225 203 196 193 190 192 192 193 193 192 184 182 186 190 198 196 194 195 192 189 190 190
150 212 197 158 176 183 174 196 215 248 197 197 239 253 256 228 220 220 217 216 219 227 226 214 200 195 198 199 199 198 198 195 192 194 188 180 173 183 191 189 193 192 192 192
182 191 154 158 175 192 203 197 197 208 49 265 281 279 258 250 231 236 231 227 224 222 223 217 207 205 203 205 203 202 201 198 197 191 175 159 155 155 176 190 196 198 196 196
190 166 159 175 192 183 216 190 173 166 139 249 202 258 263 241 242 236 232 226 228 227 224 220 212 209 209 211 204 203 201 199 196 190 186 185 193 200 197 185 189 193 197 199
199 173 170 188 192 171 174 152 157 161 173 270 235 237 269 237 240 241 233 227 229 227 221 220 215 214 213 207 202 202 199 200 196 194 196 197 203 203 178 170 180 188 192 193
169 173 178 181 162 158 127 95 76 68 112 245 218 207 262 223 217 228 230 227 228 226 222 224 219 210 209 199 197 195 197 201 197 196 199 200 201 192 176 177 180 182 173 174
168 190 194 147 138 157 150 132 137 176 210 241 178 204 246 236 219 215 222 227 227 224 218 217 210 204 202 195 194 193 196 202 198 198 201 202 201 194 190 184 182 174 168 166
168 198 194 177 165 168 179 164 171 184 206 248 183 227 247 241 244 246 248 248 243 231 220 218 211 203 201 197 193 192 197 201 197 199 202 200 197 194 192 184 175 174 168 161
175 196 162 177 152 143 161 192 168 137 133 212 238 263 293 258 258 250 246 243 239 230 220 216 207 197 194 192 194 193 195 198 197 199 197 196 192 186 179 169 160 150 143 136
141 156 170 154 111 151 161 153 140 166 176 228 257 242 235 228 230 235 235 234 237 223 214 207 199 190 184 182 179 178 187 194 193 191 190 186 182 176 164 153 149 144 140 135
123 130 146 159 179 173 147 163 168 167 184 184 236 255 220 208 209 219 229 230 227 215 207 196 186 175 163 154 156 159 165 169 176 179 173 164 159 154 150 148 147 144 138 137
131 117 141 202 231 170 159 173 166 180 207 198 219 263 258 227 241 241 247 250 233 206 191 180 173 165 162 162 158 157 158 160 163 159 153 149 145 143 141 142 142 139 135 133
142 126 114 117 186 186 197 190 191 187 156 178 207 255 276 247 261 253 254 253 230 198 181 174 174 179 177 171 164 157 156 151 143 142 141 140 142 142 141 140 138 135 132 129
132 138 167 187 193 167 183 189 183 171 194 217 229 245 272 267 261 261 246 238 215 198 190 189 191 190 185 175 167 160 153 146 143 141 141 142 143 142 139 136 134 132 132 130
145 177 191 186 156 154 175 183 180 195 205 214 231 231 234 242 248 252 236 212 205 208 205 203 200 193 185 178 172 163 156 151 147 143 141 138 133 130 129 128 127 124 122 123
163 175 160 156 166 168 179 188 190 206 215 227 238 244 226 224 230 235 225 213 222 224 217 209 203 196 193 187 177 167 162 157 150 145 141 135 133 130 130 129 127 124 121 122
163 147 155 182 122 107 226 203 197 208 216 211 231 241 194 210 222 226 221 214 222 223 215 209 206 203 197 188 177 173 163 152 148 144 143 144 142 139 137 134 131 131 131 129
158 148 139 134 129 209 234 195 191 211 225 217 227 229 195 211 220 224 212 211 223 221 213 211 205 199 187 173 166 157 153 155 154 153 154 152 148 142 139 137 135 133 132 134
159 149 134 146 183 248 264 207 188 199 237 224 227 231 216 210 242 265 229 214 221 218 211 206 194 182 171 169 163 155 158 161 162 165 165 161 155 149 146 145 141 137 134 131
147 141 138 152 184 225 237 192 159 151 250 230 212 219 198 153 213 248 229 213 225 221 202 183 165 160 168 168 160 161 168 171 177 173 165 158 156 154 152 148 141 133 134 132
148 158 172 174 206 244 230 156 139 183 238 197 189 197 183 192 217 233 188 201 215 209 184 161 161 172 174 164 163 171 175 185 173 153 147 149 151 150 144 137 135 135 132 128
166 171 186 176 209 236 179 150 178 210 170 162 177 189 192 209 221 221 134 227 163 144 150 156 163 170 163 165 169 178 184 166 145 145 147 148 146 143 140 137 135 136 137 135
184 184 178 192 215 181 168 185 196 160 165 176 175 186 180 192 212 204 197 189 123 143 150 153 158 154 156 169 176 180 165 145 145 146 149 146 142 140 145 147 146 144 146 146
226 133 137 182 225 196 190 168 147 149 153 140 131 130 144 161 166 170 173 160 107 94 134 140 146 156 165 167 167 154 142 145 147 150 149 149 148 145 144 147 153 156 162 161
175 156 153 183 182 133 221 204 168 129 107 94 83 84 109 127 121 130 138 124 90 78 94 132 153 159 153 140 137 135 144 147 148 149 151 153 153 152 152 150 161 165 170 178
173 171 173 197 186 169 182 170 146 123 108 106 100 78 59 73 88 86 83 75 84 90 95 111 124 133 135 137 137 142 151 153 152 155 159 160 157 155 154 151 143 172 169 178